NOAA 16 DEB, 41398

Orbit data source: Space-Track

NOAA 16 DEB, 41398 is space debris in SSO originally from a launch on Thu, 21 Sep 2000 UTC launched from the Air Force Western Test Range (AFWTR). Debris objects in space refer to the collection of defunct objects orbiting the Earth. Examples of debris include non-operational satellites, rocket bodies, and fragments generated from explosions, collisions, or faulty payload assembly.

Loading next visibility...
Identifier
41398, 2000-055KB
Orbit
SSO
Country
Flag of USUS
Related business
Manufacturer
Unknown
Mission
Spacecraft
Bus & Motor
Unknown
Mass
Unknown
Launch date (UTC)
2000-09-21 (26 years ago)
Launch vehicle
Unknown
Launch site
Air Force Western Test Range (AFWTR)
Object type
Payload
Rocket body
Debris
Shape & HBR
Unknown shape, 0.1 m
Radar Cross Section
Medium (>0.1 m² and <1 m²)

Expand to show TLE details & history
Last TLE update: 2 days ago

TLE from 2 days ago
0 NOAA 16 DEB
1 41398U 00055KB  26177.14625872  .00005319  00000-0  17461-2 0  9992
2 41398  98.8237 300.7797 0015584 186.6855 173.4126 14.38684516535541
Epoch: 2026-06-26T03:30Z
TLE epoch observation values (Epoch: 2026-06-26T03:30:36.753Z)
Latitude
-0.00001°
Longitude
-26.15239°
Altitude
776.842 km
Speed
7.46 km/s
True Right ascension
20h 03m 07s
True Declination
0° 00' 00"
Sunlit
Object was in full shadow at epoch
Visualization orbit readout
Latitude
Unknown
Longitude
Unknown
Altitude
Unknown
Speed
Unknown
Apparent Right ascension
Unknown
Apparent Declination
Unknown
Sunlit
N/A
Visualization observer readout
Local Sidereal Time
08:00:19
Azimuth
Unknown
Elevation
Unknown
Doppler factor
Unknown
Orbital elements
Apogee altitude
771.111 km
Perigee altitude
748.863 km
Semi-major axis
7,138.124 km
Eccentricity
0.00156
Inclination
98.8237°
RAAN
300.7797°
Arg. of periapsis
186.6855°
True anomaly
173.43305°
Mean anomaly
173.4126°
Eccentric anomaly
173.42283°
Mean motion
3.59888 °/min
Orbital period
100.03 mins
BSTAR
0.0017461
Loading maneuver chart data...
Computing Atmospheric mass density...
Loading historical data...
Loading historical data...
Loading historical data...
Loading historical data...
Loading historical data...
Loading historical data...
Loading historical data...

Documentation

Showing up to 5 results
|